sat.trackr.live / text

‹ back to catalog

STARLINK-32193

NORAD 60428 · 2024-144D

PAYLOAD ACTIVE UNKNOWN

§ Identity

Operator
Country
US
Launch date
2024-08-12
Launch site
AFETR
Launch vehicle
Mass (kg)
RCS (m²)

Purposes: comms

External: N2YO · Heavens-Above · Gunter

§ Orbital elements

Epoch: 2026-09-21T16:04:36.740352Z

Period
93.85 min
Inclination
53.1623°
Eccentricity
0.0001146
Mean motion
15.34395042 rev/d
Perigee alt
461.9 km
Apogee alt
463.5 km
Semi-major
6,840.9 km
B*
4.1356e-6
RAAN
24.0544°
Arg perigee
56.4733°
Mean anomaly
303.6379°
Rev number
11,939

§ Raw data

STARLINK-321931 60428U 24144D   26264.66986968 -.00000236  00000+0  41356-5 0  99982 60428  53.1623  24.0544 0001146  56.4733 303.6379 15.34395042119391

JSON: /api/v1/satellites/60428 · /tle

For live sub-satellite position, see the globe view (requires WebGL).

§ Visibility from observer

Set your observer location to see the next 7 days of passes ≥ 10°. The values pass through the URL so the page stays shareable.

No JS? Fill the form by hand. The geolocation button needs JavaScript.